Weather History for KAFF - January, 2013

Change the Weather History Date:

Thursday, January 24, 2013

  Actual Average Record
Temperature  
Mean Temperature 46 °F -  
Max Temperature 64 °F 41 °F 64 °F (2013)
Min Temperature 28 °F 20 °F 0 °F (2008)
Degree Days  
Heating Degree Days 19    
Moisture  
Dew Point 11 °F    
Average Humidity 19    
Maximum Humidity 54    
Minimum Humidity 6    
Precipitation  
Precipitation 0.00 in - - ()
Sea Level Pressure  
Sea Level Pressure 30.00 in    
Wind  
Wind Speed 10 mph (WNW)    
Max Wind Speed 21 mph    
Max Gust Speed 31 mph    
Visibility 10 miles    
Events      
Averages and records for this station are not official NWS values.
T = Trace of Precipitation, MM = Missing Value Source: NWS Daily Summary

Daily Weather History Graph

Daily Weather History Graph

Search for Another Location

Airport or City:

Trip Planner

Search our weather history database for the weather conditions in past years. The results will help you decide how hot, cold, wet, or windy it might be!

Date:

Astronomy

Jan. 24, 2013 Rise Set
Actual Time 7:11 AM MST 5:11 PM MST
Civil Twilight 6:43 AM MST 5:40 PM MST
Nautical Twilight 6:10 AM MST 6:12 PM MST
Astronomical Twilight 5:39 AM MST 6:44 PM MST
Moon 3:16 PM MST (1/24) 5:10 AM MST (1/24)
Length of Visible Light 10h 57m
Length of Day
9h 59m
Waxing Gibbous, 95% of the Moon is Illuminated
Jan 24
Waxing Gibbous
Jan 26
Full
Feb 3
Last Quarter
Feb 10
New
Feb 17
First Quarter

Hourly Weather History & Observations

Time (MST) Temp. Windchill Dew Point Humidity Pressure Visibility Wind Dir Wind Speed Gust Speed Precip Events Conditions
12:58 AM 32.0 °F - -0.0 °F 26% 30.10 in 10.0 mi Calm Calm - N/A   Overcast
1:58 AM 33.6 °F - -2.4 °F 22% 30.05 in 10.0 mi SE 2.3 mph - N/A   Overcast
2:58 AM 30.2 °F 24.3 °F 3.0 °F 32% 30.06 in 10.0 mi North 5.8 mph - N/A   Mostly Cloudy
3:58 AM 28.4 °F 23.3 °F 3.4 °F 34% 30.04 in 10.0 mi North 4.6 mph - N/A   Mostly Cloudy
4:58 AM 28.2 °F 23.1 °F 4.1 °F 36% 30.04 in 10.0 mi North 4.6 mph - N/A   Mostly Cloudy
5:58 AM 38.3 °F 33.2 °F -6.0 °F 15% 30.04 in 10.0 mi North 6.9 mph - N/A   Clear
6:58 AM 48.2 °F - -11.7 °F 8% 29.99 in 10.0 mi ENE 9.2 mph 16.1 mph N/A   Clear
7:58 AM 50.9 °F - -15.2 °F 6% 29.97 in 10.0 mi Variable 2.3 mph - N/A   Clear
8:58 AM 53.2 °F - -12.6 °F 6% 29.98 in 10.0 mi North 8.1 mph - N/A   Partly Cloudy
9:58 AM 56.3 °F - -10.3 °F 6% 29.99 in 10.0 mi West 13.8 mph 19.6 mph N/A   Partly Cloudy
10:58 AM 59.7 °F - -4.0 °F 7% 29.95 in 10.0 mi NW 8.1 mph - N/A   Clear
11:23 AM 60.8 °F - 3.2 °F 10% 30.07 in 10.0 mi West 16.1 mph 19.6 mph N/A   Clear
11:44 AM 60.8 °F - 8.6 °F 13% 30.04 in 10.0 mi NW 19.6 mph 31.1 mph N/A   Clear
11:58 AM 61.3 °F - 9.1 °F 13% 29.96 in 10.0 mi West 12.7 mph 19.6 mph N/A   Clear
11:59 AM 60.8 °F - 10.4 °F 14% 30.04 in 10.0 mi NW 17.3 mph 21.9 mph N/A   Clear
12:01 PM 62.6 °F - 10.4 °F 13% 30.04 in 10.0 mi West 16.1 mph 23.0 mph N/A   Clear
12:02 PM 62.6 °F - 10.4 °F 13% 30.04 in 10.0 mi WSW 19.6 mph 23.0 mph N/A   Clear
12:31 PM 62.6 °F - 12.2 °F 14% 30.03 in 10.0 mi West 20.7 mph 25.3 mph N/A   Clear
12:34 PM 62.6 °F - 12.2 °F 14% 30.02 in 10.0 mi WSW 17.3 mph 25.3 mph N/A   Clear
12:35 PM 62.6 °F - 12.2 °F 14% 30.02 in 10.0 mi SW 17.3 mph 25.3 mph N/A   Clear
12:40 PM 62.6 °F - 12.2 °F 14% 30.02 in 7.0 mi SW 20.7 mph 29.9 mph N/A   Clear
12:58 PM 62.8 °F - 5.9 °F 11% 29.91 in 10.0 mi SW 15.0 mph 28.8 mph N/A   Clear
12:59 PM 62.6 °F - 8.6 °F 12% 30.01 in 10.0 mi West 13.8 mph 20.7 mph N/A   Clear
1:01 PM 64.4 °F - 10.4 °F 12% 30.01 in 10.0 mi WSW 15.0 mph 20.7 mph N/A   Clear
1:02 PM 64.4 °F - 10.4 °F 12% 30.00 in 10.0 mi SW 17.3 mph 20.7 mph N/A   Clear
1:27 PM 64.4 °F - 15.8 °F 15% 30.00 in 10.0 mi West 15.0 mph - N/A   Clear
1:28 PM 64.4 °F - 15.8 °F 15% 30.00 in 10.0 mi WNW 12.7 mph - N/A   Clear
1:38 PM 62.6 °F - 15.8 °F 16% 29.99 in 10.0 mi West 17.3 mph 26.5 mph N/A   Clear
1:39 PM 62.6 °F - 15.8 °F 16% 29.99 in 10.0 mi WSW 17.3 mph 26.5 mph N/A   Clear
1:40 PM 64.4 °F - 15.8 °F 15% 29.99 in 7.0 mi West 20.7 mph 31.1 mph N/A   Clear
1:49 PM 62.6 °F - 17.6 °F 18% 29.99 in 10.0 mi WNW 15.0 mph 31.1 mph N/A   Clear
1:50 PM 62.6 °F - 17.6 °F 18% 29.99 in 10.0 mi NW 12.7 mph 31.1 mph N/A   Partly Cloudy
1:58 PM 62.8 °F - 17.6 °F 17% 29.88 in 10.0 mi WNW 19.6 mph 28.8 mph N/A   Partly Cloudy
2:20 PM 62.6 °F - 17.6 °F 18% 29.99 in 10.0 mi West 15.0 mph 24.2 mph N/A   Clear
2:21 PM 62.6 °F - 17.6 °F 18% 29.99 in 10.0 mi WSW 12.7 mph 24.2 mph N/A   Clear
2:26 PM 62.6 °F - 17.6 °F 18% 29.99 in 10.0 mi WNW 17.3 mph 24.2 mph N/A   Clear
2:38 PM 62.6 °F - 19.4 °F 19% 30.00 in 10.0 mi West 16.1 mph 20.7 mph N/A   Partly Cloudy
2:39 PM 62.6 °F - 19.4 °F 19% 30.00 in 10.0 mi West 15.0 mph 20.7 mph N/A   Partly Cloudy
2:46 PM 62.6 °F - 17.6 °F 18% 30.00 in 10.0 mi NW 16.1 mph 21.9 mph N/A   Partly Cloudy
2:47 PM 62.6 °F - 17.6 °F 18% 30.00 in 10.0 mi NW 15.0 mph 21.9 mph N/A   Partly Cloudy
2:48 PM 62.6 °F - 17.6 °F 18% 30.00 in 10.0 mi NNW 11.5 mph 21.9 mph N/A   Partly Cloudy
2:58 PM 63.1 °F - 18.3 °F 18% 29.91 in 10.0 mi NW 9.2 mph 21.9 mph N/A   Scattered Clouds
3:11 PM 62.6 °F - 19.4 °F 19% 30.01 in 10.0 mi West 18.4 mph 25.3 mph N/A   Mostly Cloudy
3:58 PM 61.5 °F - 20.5 °F 21% 29.94 in 10.0 mi WNW 10.4 mph 19.6 mph N/A   Partly Cloudy
4:58 PM 57.7 °F - 20.8 °F 24% 29.98 in 10.0 mi WNW 15.0 mph 26.5 mph N/A   Clear
5:58 PM 53.1 °F - 21.7 °F 29% 29.98 in 10.0 mi WNW 9.2 mph - N/A   Clear
6:58 PM 51.3 °F - 20.3 °F 30% 29.97 in 10.0 mi ENE 10.4 mph - N/A   Clear
7:58 PM 46.6 °F - 18.9 °F 33% 29.99 in 10.0 mi ENE 5.8 mph - N/A   Clear
8:58 PM 45.7 °F 43.4 °F 21.0 °F 38% 30.01 in 10.0 mi NW 4.6 mph - N/A   Partly Cloudy
9:58 PM 40.6 °F 36.0 °F 19.4 °F 43% 30.02 in 10.0 mi ENE 6.9 mph - N/A   Clear
10:58 PM 36.3 °F 29.5 °F 19.0 °F 50% 30.06 in 10.0 mi NE 9.2 mph - N/A   Clear
11:58 PM 33.6 °F 28.4 °F 18.5 °F 54% 30.04 in 10.0 mi ESE 5.8 mph - N/A   Clear